This is the latest recevied weather packets stored in our database for station/object N6OIM. If no packets are shown the sender has not sent any weather packets the latest 10 day(s).
| Time | Temp. | Humidity | Pressure | Rain* | Wind** | Luminosity | Snow |
|---|---|---|---|---|---|---|---|
| 1777749813 | 18.33° C | 68% | 1011.1 hPa | 0 mm | - | - | - |
| 1777749504 | 18.33° C | 68% | 1011.2 hPa | 0 mm | - | - | - |
| 1777747101 | 17.78° C | 69% | 1011.2 hPa | 0 mm | - | - | - |
| 1777744403 | 17.22° C | 71% | 1011.4 hPa | 0 mm | - | - | - |
| 1777744112 | 17.22° C | 72% | 1011.5 hPa | 0 mm | - | - | - |
| 1777743511 | 17.22° C | 71% | 1011.5 hPa | 0 mm | - | - | - |
| 1777742911 | 16.67° C | 73% | 1011.2 hPa | 0 mm | - | - | - |
| 1777741107 | 16.11° C | 76% | 1011.1 hPa | 0 mm | - | - | - |
| 1777739902 | 16.11° C | 76% | 1011.1 hPa | 0 mm | - | - | - |
| 1777739301 | 15.56° C | 77% | 1011 hPa | 0 mm | - | - | - |
| 1777738699 | 15.56° C | 77% | 1010.9 hPa | 0 mm | - | - | - |
| 1777738104 | 15.56° C | 78% | 1011 hPa | 0 mm | - | - | - |
| 1777737812 | 15° C | 79% | 1011 hPa | 0 mm | - | - | - |
| 1777737500 | 15° C | 79% | 1011 hPa | 0 mm | - | - | - |
| 1777736314 | 14.44° C | 81% | 1010.8 hPa | 0 mm | - | - | - |
| 1777736002 | 13.89° C | 81% | 1010.8 hPa | 0 mm | - | - | - |
| 1777735715 | 13.89° C | 82% | 1010.7 hPa | 0 mm | - | - | - |
| 1777735405 | 13.89° C | 82% | 1010.7 hPa | 0 mm | - | - | - |
| 1777735094 | 13.89° C | 82% | 1010.7 hPa | 0 mm | - | - | - |
| 1777734806 | 13.89° C | 82% | 1010.6 hPa | 0 mm | - | - | - |
| 1777734515 | 13.33° C | 83% | 1010.7 hPa | 0 mm | - | - | - |
| 1777733909 | 13.33° C | 84% | 1010.8 hPa | 0 mm | - | - | - |
| 1777733306 | 13.33° C | 84% | 1010.6 hPa | 0 mm | - | - | - |
| 1777732707 | 13.33° C | 84% | 1010.6 hPa | 0 mm | - | - | - |
| 1777732415 | 12.78° C | 84% | 1010.6 hPa | 0 mm | - | - | - |
* Rain latest hour (hover to see other rain measurements)
** Current wind speed in m/s (hover to see current wind gust speed)